Wind_Speed
11 12 12 12 12 12 12 12 12 12 13 13 13 13 14 14 14 15 15 15 15 16 16 17 17 17 17 18 18 18 19 19 19 19 19 19 19 19 19 19 19 19 19
9 10 10 10 11 11 12 12 12 12 13 13 13 13 13 14 14 15 15 15 16 16 17 17 18 18 18 19 19 20 20 20 20 21 21 21 21 21 21 21 21 21 21
7 8 9 9 10 10 11 12 12 12 12 13 13 13 14 14 15 15 16 16 16 17 17 18 18 19 19 20 20 21 21 21 22 22 22 22 22 22 23 23 23 23 23
7 8 9 10 10 10 11 12 12 13 13 13 14 14 14 15 15 16 16 17 17 18 18 19 19 20 20 20 21 21 22 22 23 23 23 23 24 24 24 24 24 23 23
7 8 9 10 11 11 11 12 13 13 14 14 14 14 15 15 16 16 17 17 18 19 19 20 20 21 21 21 22 22 23 23 23 23 24 24 24 24 24 24 24 24 24
7 8 9 10 10 11 11 12 12 13 14 14 15 15 16 16 17 17 18 18 19 19 20 20 21 22 22 22 23 23 24 24 24 24 24 24 24 24 25 25 25 25 25
8 9 10 10 11 11 12 13 13 14 14 15 15 16 17 17 18 18 19 19 20 20 21 21 22 23 23 24 24 24 25 25 25 25 25 25 25 25 25 25 25 25 25
10 11 11 12 13 13 14 15 15 15 16 16 17 17 18 19 19 20 20 21 22 22 22 23 23 23 24 24 25 25 26 26 26 26 26 26 26 26 26 27 27 27 27
13 13 13 14 15 15 16 16 17 17 18 18 19 19 20 20 21 21 22 23 23 24 24 24 25 25 25 26 26 27 27 27 28 28 28 28 28 29 29 28 28 28 28
15 15 16 16 16 17 17 17 18 19 19 20 20 21 21 22 22 23 24 24 25 25 26 26 26 27 27 28 28 28 29 29 30 30 30 30 30 31 31 31 30 30 30
17 17 17 18 18 18 18 18 19 19 20 21 21 22 23 23 24 24 25 26 26 27 27 27 28 28 29 29 30 30 31 31 32 32 32 33 33 33 33 33 33 33 33
18 18 18 18 19 19 19 20 20 20 21 22 22 23 23 24 25 25 26 26 27 27 28 28 29 29 30 30 31 31 32 32 33 33 34 35 35 35 36 36 36 36 36
20 20 20 20 20 20 20 20 20 21 21 22 23 23 24 24 25 26 26 27 28 28 29 29 30 30 30 31 31 32 33 33 34 35 35 36 37 37 38 38 38 39 39
21 22 21 21 21 21 21 21 21 21 22 22 23 24 24 25 26 26 27 28 29 29 30 30 31 31 32 32 32 33 33 34 35 35 36 37 38 38 39 40 40 41 41
23 23 23 22 22 22 22 22 22 23 23 23 24 24 25 26 27 27 28 29 29 30 31 31 32 32 33 33 33 33 34 34 35 36 37 37 38 39 40 41 42 42 43
24 24 24 24 23 24 24 24 24 24 24 24 24 25 26 26 27 28 29 29 30 31 31 32 32 33 33 34 34 34 35 35 36 37 38 38 39 40 41 41 42 43 44
26 26 25 25 25 25 25 25 25 25 25 25 25 26 27 27 28 29 29 30 31 32 32 33 33 34 34 35 35 35 36 36 37 38 39 40 40 41 41 42 42 43 44
27 27 27 26 26 26 26 26 26 26 26 26 27 27 28 28 29 30 31 32 32 33 33 34 34 34 35 35 35 36 36 37 38 39 40 40 41 42 42 43 43 44 44
29 29 28 28 28 27 27 27 27 27 27 27 28 28 29 29 30 31 32 32 33 33 34 34 35 35 36 36 36 37 37 38 39 40 41 42 42 43 44 44 45 45 45
30 30 29 29 29 29 29 29 28 28 28 29 29 29 30 30 31 32 32 33 34 34 35 35 36 36 37 37 37 38 38 39 40 41 42 43 44 44 45 45 46 46 46
31 30 30 30 29 29 29 29 29 29 29 30 30 30 31 32 32 33 33 34 35 35 36 36 37 37 38 39 39 39 40 41 42 43 44 45 45 46 46 46 47 47 48
31 31 31 30 30 30 30 30 30 30 30 31 31 31 32 33 33 34 34 35 36 37 37 38 38 39 40 41 41 41 40 41 42 43 45 46 46 47 47 48 48 49 50
32 32 31 31 31 30 30 31 31 31 32 32 32 33 33 34 34 35 36 37 37 38 39 40 40 41 41 42 43 43 43 42 42 42 44 46 47 48 49 50 51 52 53
33 32 32 32 31 31 31 31 32 32 32 33 33 34 35 35 36 36 37 38 39 40 40 41 42 42 43 44 45 46 47 47 46 44 44 46 48 49 51 52 53 55 56
32 32 32 32 32 32 32 32 32 33 33 34 34 35 36 36 37 38 39 40 40 41 42 43 44 44 45 46 47 47 49 49 50 50 48 48 49 51 52 53 55 57 58
32 32 32 32 32 32 32 33 33 34 34 35 35 36 37 37 38 40 41 41 42 43 44 45 46 46 47 48 48 49 50 51 52 54 54 53 52 52 53 55 57 58 59
Wind_Direction
255 256 258 258 259 260 262 264 264 265 266 267 268 270 272 273 275 276 277 278 279 280 280 280 280 280 278 276 275 275 274 273 272 271 270 270 271 270 269 269 268 266 264
259 259 259 260 262 264 265 267 267 268 268 269 270 272 273 273 275 275 276 277 278 278 279 280 279 279 278 276 275 274 274 273 273 272 271 270 270 270 270 269 268 267 266
264 264 263 264 266 268 269 270 271 272 272 272 273 273 274 275 276 277 277 277 277 278 278 279 280 279 277 276 275 274 274 274 274 273 273 272 271 271 271 270 270 268 267
273 272 270 268 269 271 272 273 274 275 276 277 277 277 278 278 278 278 278 278 278 278 278 279 280 279 278 277 276 275 275 274 274 274 273 273 272 271 271 271 270 269 268
282 280 278 275 273 273 273 274 275 276 277 277 278 278 278 278 278 279 278 278 278 279 280 280 280 280 280 279 278 278 277 276 275 274 274 273 273 272 271 270 270 269 269
289 286 285 283 280 279 279 278 279 279 279 279 279 278 278 279 279 279 279 279 279 280 280 280 281 280 280 280 279 279 278 278 276 275 274 274 273 273 272 272 271 271 270
292 291 289 287 285 282 282 283 282 282 283 283 282 281 280 280 280 281 281 281 281 281 281 281 281 281 281 280 280 279 279 278 278 277 275 275 274 274 273 273 273 272 271
288 288 288 287 286 285 284 284 284 284 284 284 284 283 283 282 282 282 282 282 282 282 282 282 282 281 281 280 280 279 279 278 278 277 276 275 274 274 274 274 273 273 272
286 285 286 286 285 284 284 284 284 284 284 283 283 283 283 283 283 284 284 284 283 283 283 283 283 282 281 281 280 279 279 278 277 277 276 275 274 274 273 273 273 272 272
286 285 285 285 285 284 283 283 284 284 284 284 283 283 283 283 283 283 283 283 283 284 283 283 283 282 281 281 280 279 278 277 277 276 276 275 275 274 273 272 272 271 271
286 286 285 285 286 285 284 284 284 284 284 284 284 284 284 284 285 285 285 285 284 284 284 284 283 283 282 281 280 279 278 278 277 276 276 275 275 274 273 272 272 272 271
286 287 286 286 286 286 285 285 285 285 285 285 286 286 286 286 286 286 286 286 286 286 285 285 284 284 283 282 281 281 280 279 278 277 276 275 275 274 273 273 272 272 271
286 287 287 287 286 286 285 285 286 286 286 286 286 286 287 287 287 287 287 287 287 287 286 286 286 285 284 283 283 282 281 280 279 278 277 276 275 274 273 273 272 272 271
284 286 286 286 285 284 285 285 285 286 286 287 287 287 287 287 288 288 288 288 288 288 287 287 286 285 285 284 284 283 283 282 280 279 278 277 275 274 273 272 272 271 271
282 284 284 284 283 283 284 284 284 285 286 287 288 288 288 288 288 289 289 289 289 289 288 287 287 286 285 285 284 284 283 283 282 281 279 278 277 275 274 273 273 272 271
281 282 283 283 282 282 283 283 283 284 285 286 287 288 288 289 289 290 291 291 291 290 290 288 288 287 287 286 285 284 284 283 282 281 280 280 279 278 277 276 275 274 273
280 280 280 280 281 281 281 282 283 283 284 285 286 288 288 288 289 290 290 290 291 290 290 289 288 288 287 287 287 286 286 285 284 284 283 282 282 281 280 279 278 277 276
278 278 279 279 279 279 280 280 281 282 283 284 286 287 287 288 289 289 290 290 291 291 290 290 290 289 288 287 287 286 286 285 285 284 284 283 283 282 282 281 280 279 278
276 276 277 278 278 279 279 279 280 281 282 284 286 287 288 288 289 289 290 290 290 290 290 290 289 289 288 287 287 287 287 286 286 286 286 285 285 284 284 283 282 280 279
275 275 275 276 277 277 278 278 279 280 281 283 285 287 288 288 288 289 289 290 290 290 290 290 290 289 288 288 287 287 287 286 286 286 286 286 285 285 284 284 283 282 281
275 275 275 275 275 275 276 278 278 279 281 283 285 286 287 288 289 289 290 290 290 290 290 289 289 289 288 288 287 287 287 287 286 286 286 286 286 286 285 284 284 283 282
274 274 274 274 274 274 276 277 278 280 281 283 285 286 288 289 290 290 290 290 291 291 290 290 290 289 289 288 288 287 286 286 287 287 287 287 286 286 286 285 284 283 283
273 273 272 272 273 274 276 277 278 280 281 283 285 287 288 289 290 290 290 291 291 291 291 291 291 290 290 290 289 288 287 285 284 285 286 287 287 287 286 286 285 285 284
272 271 271 271 272 273 275 277 278 280 282 283 285 287 289 289 290 291 291 292 292 292 292 292 292 292 291 291 291 290 290 289 287 284 283 284 284 285 285 286 286 285 285
270 270 270 271 272 273 274 277 279 281 282 284 286 288 289 291 291 292 292 293 293 293 294 294 294 293 293 292 292 292 291 291 290 288 286 285 285 285 285 285 285 285 285
269 269 269 270 271 273 275 277 279 282 284 286 287 289 291 292 293 293 294 294 294 294 295 295 295 294 294 293 293 293 292 292 291 291 290 288 287 287 287 287 286 285 285
Height
5872 5872 5873 5873 5874 5874 5875 5875 5875 5875 5875 5875 5875 5875 5875 5875 5875 5874 5874 5874 5874 5874 5874 5873 5873 5873 5873 5873 5872 5872 5872 5872 5872 5872 5872 5872 5872 5872 5872 5872 5873 5873 5873
5871 5871 5871 5871 5872 5872 5872 5873 5873 5873 5873 5873 5872 5872 5872 5872 5872 5872 5871 5871 5871 5871 5871 5870 5870 5870 5870 5870 5869 5869 5869 5869 5869 5869 5869 5869 5869 5869 5869 5869 5869 5869 5869
5869 5869 5869 5869 5870 5870 5870 5870 5870 5870 5870 5870 5870 5870 5869 5869 5869 5869 5869 5868 5868 5868 5868 5867 5867 5867 5867 5866 5866 5866 5866 5866 5866 5865 5865 5865 5865 5865 5865 5865 5865 5865 5865
5868 5868 5868 5868 5868 5868 5868 5868 5868 5868 5868 5867 5867 5867 5867 5866 5866 5866 5866 5865 5865 5865 5865 5864 5864 5864 5863 5863 5862 5862 5862 5862 5862 5862 5862 5862 5861 5861 5861 5861 5861 5861 5861
5867 5867 5866 5866 5866 5866 5866 5866 5866 5865 5865 5865 5865 5864 5864 5863 5863 5863 5863 5862 5862 5862 5861 5861 5861 5860 5860 5859 5859 5859 5858 5858 5858 5858 5858 5857 5857 5857 5857 5857 5857 5857 5857
5865 5865 5865 5864 5864 5864 5864 5864 5863 5863 5863 5862 5862 5861 5861 5861 5860 5860 5859 5859 5859 5858 5858 5857 5857 5857 5856 5856 5855 5855 5855 5854 5854 5854 5854 5853 5853 5853 5853 5853 5853 5853 5853
5864 5864 5863 5863 5862 5862 5862 5861 5861 5860 5860 5859 5859 5858 5858 5858 5857 5857 5856 5856 5855 5855 5854 5854 5853 5853 5852 5852 5851 5851 5851 5850 5850 5850 5849 5849 5849 5849 5849 5849 5849 5849 5849
5862 5862 5861 5861 5860 5860 5859 5859 5858 5858 5857 5856 5856 5855 5855 5854 5854 5853 5853 5852 5851 5851 5850 5850 5849 5849 5848 5848 5847 5847 5846 5846 5846 5846 5845 5845 5845 5845 5844 5844 5844 5844 5844
5860 5860 5859 5859 5858 5857 5857 5856 5855 5855 5854 5853 5853 5852 5851 5851 5850 5849 5849 5848 5847 5847 5846 5845 5845 5844 5844 5843 5843 5842 5842 5842 5841 5841 5841 5840 5840 5840 5840 5839 5839 5839 5839
5858 5857 5857 5856 5855 5854 5854 5853 5852 5851 5851 5850 5849 5848 5847 5847 5846 5845 5845 5844 5843 5842 5841 5841 5840 5839 5839 5838 5838 5837 5837 5836 5836 5836 5836 5835 5835 5834 5834 5834 5834 5834 5834
5855 5854 5854 5853 5852 5851 5850 5850 5849 5848 5847 5846 5845 5844 5843 5842 5842 5841 5840 5839 5838 5837 5836 5836 5835 5834 5834 5833 5832 5832 5831 5831 5830 5830 5830 5829 5829 5828 5828 5828 5828 5828 5827
5851 5851 5850 5849 5848 5848 5847 5846 5845 5844 5843 5842 5841 5840 5839 5838 5837 5836 5835 5834 5833 5832 5831 5830 5830 5829 5828 5827 5826 5826 5825 5824 5824 5823 5823 5822 5822 5822 5821 5821 5821 5821 5821
5848 5847 5846 5846 5845 5844 5843 5842 5841 5840 5839 5838 5836 5835 5834 5833 5832 5831 5830 5829 5828 5827 5826 5825 5824 5823 5822 5821 5820 5819 5819 5818 5817 5816 5816 5815 5814 5814 5814 5814 5813 5813 5813
5844 5843 5842 5841 5840 5839 5839 5837 5836 5835 5834 5833 5832 5831 5830 5828 5827 5826 5825 5824 5822 5821 5820 5819 5818 5816 5815 5814 5813 5813 5812 5811 5810 5809 5808 5807 5806 5806 5805 5805 5805 5805 5804
5839 5839 5838 5837 5836 5835 5834 5833 5832 5831 5830 5828 5827 5826 5825 5823 5822 5821 5819 5818 5817 5815 5814 5813 5811 5810 5809 5807 5806 5805 5804 5803 5802 5801 5799 5799 5798 5797 5797 5796 5796 5795 5795
5835 5834 5833 5832 5831 5830 5829 5828 5827 5826 5825 5823 5822 5821 5819 5818 5817 5815 5814 5812 5811 5809 5808 5806 5805 5803 5802 5800 5799 5798 5796 5795 5794 5792 5791 5790 5789 5788 5788 5787 5786 5786 5785
5830 5829 5828 5827 5826 5825 5824 5823 5822 5820 5819 5818 5817 5815 5814 5812 5811 5809 5808 5806 5805 5803 5801 5800 5798 5796 5795 5793 5792 5791 5789 5787 5786 5784 5783 5781 5780 5779 5778 5777 5776 5776 5775
5825 5824 5823 5822 5821 5820 5818 5817 5816 5815 5814 5812 5811 5810 5808 5807 5805 5803 5801 5800 5798 5796 5795 5793 5791 5790 5788 5786 5785 5783 5781 5779 5777 5775 5774 5772 5771 5770 5768 5767 5766 5765 5764
5819 5818 5817 5816 5815 5814 5813 5811 5810 5809 5808 5807 5805 5804 5802 5801 5799 5797 5795 5793 5791 5789 5788 5786 5784 5782 5781 5779 5777 5775 5773 5771 5769 5767 5765 5763 5761 5760 5758 5757 5756 5755 5753
5813 5812 5811 5810 5809 5808 5806 5805 5804 5803 5802 5800 5799 5797 5796 5794 5792 5790 5788 5787 5784 5782 5780 5779 5777 5775 5773 5771 5770 5768 5766 5763 5761 5758 5756 5754 5752 5750 5748 5746 5745 5743 5742
5806 5806 5805 5804 5803 5801 5800 5799 5798 5797 5796 5794 5792 5791 5789 5787 5785 5784 5782 5779 5777 5775 5773 5771 5769 5767 5765 5763 5762 5760 5758 5755 5752 5749 5747 5744 5742 5740 5738 5736 5734 5732 5730
5799 5799 5798 5797 5796 5795 5794 5793 5792 5791 5789 5788 5786 5784 5782 5781 5779 5776 5774 5772 5770 5768 5765 5763 5761 5758 5756 5754 5752 5751 5750 5748 5743 5740 5737 5734 5731 5729 5727 5724 5722 5720 5718
5792 5792 5791 5790 5790 5789 5788 5787 5785 5784 5782 5781 5779 5778 5775 5773 5771 5769 5767 5764 5762 5759 5757 5754 5752 5749 5747 5744 5741 5739 5738 5737 5736 5733 5728 5724 5721 5718 5715 5712 5710 5707 5705
5786 5785 5784 5784 5783 5782 5781 5780 5779 5777 5776 5774 5772 5770 5768 5766 5764 5761 5759 5756 5753 5751 5748 5745 5742 5739 5737 5734 5731 5728 5725 5723 5722 5723 5721 5716 5711 5707 5704 5701 5697 5693 5690
5778 5778 5777 5777 5776 5775 5774 5773 5772 5771 5769 5767 5765 5763 5761 5758 5756 5753 5750 5747 5744 5742 5738 5735 5732 5729 5726 5723 5720 5716 5713 5710 5707 5706 5707 5705 5701 5696 5692 5688 5684 5680 5676
5771 5771 5770 5770 5769 5768 5767 5766 5765 5763 5761 5759 5757 5755 5752 5750 5747 5744 5741 5738 5735 5732 5729 5725 5722 5718 5715 5711 5708 5704 5701 5698 5694 5691 5690 5688 5687 5684 5679 5674 5669 5665 5661